Eastover, SC

7:47 PM EDT on April 27, 2017 (GMT -0400)
McEntire Angs

Weather History for KMMT - November, 2012

Change the Weather History Date:

Thursday, November 8, 2012

  Actual Average Record
Temperature  
Mean Temperature 48 °F -  
Max Temperature 65 °F 65 °F 82 °F (2005)
Min Temperature 32 °F 45 °F 30 °F (2010)
Degree Days  
Heating Degree Days 16    
Moisture  
Dew Point 33 °F    
Average Humidity 74    
Maximum Humidity 100    
Minimum Humidity 21    
Precipitation  
Precipitation 0.00 in - - ()
Sea Level Pressure  
Sea Level Pressure 30.06 in    
Wind  
Wind Speed 4 mph (NW)    
Max Wind Speed 13 mph    
Max Gust Speed 17 mph    
Visibility 7 miles    
Events      
Averages and records for this station are not official NWS values.
T = Trace of Precipitation, MM = Missing Value Source: NWS Daily Summary

Daily Weather History Graph

Daily Weather History Graph

Search for Another Location

Airport or City:

Trip Planner

Search our weather history database for the weather conditions in past years. The results will help you decide how hot, cold, wet, or windy it might be!

Date:

Astronomy

Nov. 08, 2012 Rise Set
Actual Time 6:49 AM EST 5:24 PM EST
Civil Twilight 6:23 AM EST 5:50 PM EST
Nautical Twilight 5:53 AM EST 6:20 PM EST
Astronomical Twilight 5:23 AM EST 6:49 PM EST
Moon 12:59 AM EST (11/8) 1:50 PM EST (11/8)
Length of Visible Light 11h 27m
Length of Day
10h 34m
Waning Crescent, 33% of the Moon is Illuminated
Nov 8
Waning Crescent
Nov 13
New
Nov 20
First Quarter
Nov 28
Full
Dec 6
Last Quarter

Hourly Weather History & Observations

Time (EST) Temp. Windchill Dew Point Humidity Pressure Visibility Wind Dir Wind Speed Gust Speed Precip Events Conditions
12:28 AM 37.4 °F 34.9 °F 37.4 °F 100% 29.99 in 2.5 mi NW 3.5 mph - N/A   Partly Cloudy
12:29 AM 37.4 °F 34.9 °F 35.6 °F 93% 29.99 in 1.8 mi NW 3.5 mph - N/A   Partly Cloudy
12:30 AM 37.4 °F 34.9 °F 35.6 °F 93% 29.99 in 1.5 mi NNW 3.5 mph - N/A   Partly Cloudy
12:31 AM 37.4 °F 34.9 °F 35.6 °F 93% 29.99 in 1.2 mi NNW 3.5 mph - N/A   Partly Cloudy
12:34 AM 37.4 °F 33.8 °F 35.6 °F 93% 29.99 in 1.0 mi NW 4.6 mph - N/A   Partly Cloudy
12:38 AM 37.4 °F 33.8 °F 37.4 °F 100% 29.99 in 1.5 mi NW 4.6 mph - N/A   Clear
12:39 AM 37.4 °F 33.8 °F 37.4 °F 100% 29.99 in 1.8 mi NW 4.6 mph - N/A   Clear
12:40 AM 37.4 °F 33.8 °F 37.4 °F 100% 29.99 in 2.0 mi NW 4.6 mph - N/A   Clear
12:42 AM 37.4 °F 33.8 °F 37.4 °F 100% 29.99 in 3.0 mi NW 4.6 mph - N/A   Clear
12:55 AM 37.4 °F 34.9 °F 36.5 °F 97% 30.00 in 7.0 mi West 3.5 mph - N/A   Clear
1:55 AM 37.8 °F 33.3 °F 36.7 °F 96% 29.99 in 7.0 mi West 5.8 mph - N/A   Partly Cloudy
2:55 AM 34.7 °F 31.8 °F 33.6 °F 96% 30.00 in 10.0 mi West 3.5 mph - N/A   Partly Cloudy
3:55 AM 37.0 °F 32.4 °F 35.8 °F 95% 30.01 in 10.0 mi West 5.8 mph - N/A   Clear
4:55 AM 36.0 °F - 34.9 °F 96% 30.03 in 5.0 mi Calm Calm - N/A   Clear
5:55 AM 33.1 °F 28.7 °F 32.0 °F 96% 30.05 in 6.0 mi West 4.6 mph - N/A   Clear
6:40 AM 33.8 °F 30.8 °F 33.8 °F 100% 30.06 in 5.0 mi NW 3.5 mph - N/A   Scattered Clouds
6:55 AM 32.5 °F - 31.5 °F 96% 30.07 in 3.0 mi Calm Calm - N/A   Partly Cloudy
7:55 AM 36.1 °F - 35.6 °F 98% 30.10 in 7.0 mi Calm Calm - N/A   Partly Cloudy
8:55 AM 46.8 °F - 40.5 °F 79% 30.12 in 10.0 mi WNW 4.6 mph - N/A   Partly Cloudy
9:55 AM 54.9 °F - 36.7 °F 50% 30.13 in 10.0 mi NW 8.1 mph - N/A   Partly Cloudy
10:55 AM 59.4 °F - 32.0 °F 36% 30.13 in 10.0 mi WNW 9.2 mph - N/A   Clear
11:55 AM 61.0 °F - 28.2 °F 29% 30.11 in 10.0 mi NNW 8.1 mph - N/A   Clear
12:55 PM 63.0 °F - 28.6 °F 27% 30.08 in 10.0 mi WNW 4.6 mph 17.3 mph N/A   Clear
1:55 PM 64.4 °F - 26.8 °F 24% 30.07 in 10.0 mi WNW 9.2 mph - N/A   Clear
2:55 PM 65.7 °F - 26.2 °F 23% 30.06 in 10.0 mi WNW 10.4 mph - N/A   Clear
3:55 PM 65.3 °F - 24.4 °F 21% 30.06 in 10.0 mi WNW 12.7 mph 17.3 mph N/A   Clear
4:55 PM 61.0 °F - 26.8 °F 27% 30.08 in 10.0 mi NW 5.8 mph - N/A   Clear
5:55 PM 54.7 °F - 27.3 °F 35% 30.10 in 10.0 mi Calm Calm - N/A   Clear
6:55 PM 46.8 °F - 31.1 °F 55% 30.12 in 10.0 mi Calm Calm - N/A   Clear
7:55 PM 43.9 °F - 32.2 °F 63% 30.13 in 10.0 mi Calm Calm - N/A   Clear
8:55 PM 41.0 °F - 31.3 °F 68% 30.14 in 10.0 mi Calm Calm - N/A   Clear
9:55 PM 39.2 °F - 32.2 °F 76% 30.15 in 10.0 mi Calm Calm - N/A   Clear
10:55 PM 40.5 °F - 32.5 °F 73% 30.16 in 10.0 mi Calm Calm - N/A   Clear
11:55 PM 36.7 °F 34.1 °F 31.3 °F 81% 30.16 in 10.0 mi NNW 3.5 mph - N/A   Clear